Pineville, WV

1:43 PM EST on December 14, 2019 (GMT -0500)
Pineville

Weather History for KI16 - October, 2019

Change the Weather History Date:

Saturday, October 19, 2019

  Actual Average (KBKW) Record (KBKW)
Temperature  
Mean Temperature 52 °F -  
Max Temperature 70 °F 58 °F 81 °F (1938)
Min Temperature 35 °F 39 °F 19 °F (1930)
Degree Days  
Heating Degree Days 12    
Growing Degree Days 2 (Base 50)    
Moisture  
Dew Point 41 °F    
Average Humidity 74    
Maximum Humidity 98    
Minimum Humidity 33    
Precipitation  
Precipitation 0.00 in - - ()
Sea Level Pressure  
Sea Level Pressure 30.03 in    
Wind  
Wind Speed - (North)    
Max Wind Speed -    
Max Gust Speed -    
Visibility 10 miles    
Events Rain    
Averages and records for this station are not official NWS values.
T = Trace of Precipitation, MM = Missing Value Source: NWS Daily Summary

Daily Weather History Graph

Daily Weather History Graph

Search for Another Location

Airport or City:

Astronomy

Oct. 19, 2019 Rise Set
Actual Time 7:38 AM EDT 6:43 PM EDT
Civil Twilight 7:11 AM EDT 7:10 PM EDT
Nautical Twilight 6:41 AM EDT 7:40 PM EDT
Astronomical Twilight 6:10 AM EDT 8:11 PM EDT
Moon 10:56 PM EDT (10/19) 1:04 PM EDT (10/19)
Length of Visible Light 11h 58m
Length of Day
11h 05m
Waning Gibbous, 70% of the Moon is Illuminated
Oct 19
Waning Gibbous
Oct 21
Last Quarter
Oct 27
New
Nov 4
First Quarter
Nov 12
Full

Hourly Weather History & Observations

Time (EDT) Temp. Dew Point Humidity Pressure Visibility Wind Dir Wind Speed Gust Speed Precip Events Conditions
12:15 AM 39.2 °F 36.7 °F 91% 30.06 in 10.0 mi North - - N/A   Unknown
12:35 AM 39.0 °F 36.9 °F 92% 30.06 in 10.0 mi North - - N/A   Unknown
12:55 AM 38.5 °F 36.7 °F 93% 30.06 in 10.0 mi North - - N/A   Unknown
1:15 AM 38.3 °F 36.9 °F 95% 30.05 in 10.0 mi North - - N/A   Clear
1:35 AM 37.6 °F 36.0 °F 94% 30.06 in 10.0 mi North - - N/A   Clear
1:55 AM 37.8 °F 36.5 °F 95% 30.06 in 10.0 mi North - - N/A   Clear
2:15 AM 37.6 °F 36.1 °F 95% 30.06 in 10.0 mi North - - N/A   Clear
2:35 AM 37.8 °F 36.5 °F 95% 30.06 in 10.0 mi North - - N/A   Clear
2:55 AM 37.4 °F 36.1 °F 95% 30.06 in 10.0 mi North - - N/A   Unknown
3:15 AM 36.9 °F 35.8 °F 96% 30.07 in 10.0 mi North - - N/A   Unknown
3:35 AM 36.7 °F 35.4 °F 95% 30.06 in 10.0 mi North - - N/A   Unknown
3:55 AM 36.9 °F 36.0 °F 97% 30.05 in 10.0 mi North - - N/A   Unknown
4:15 AM 36.7 °F 35.8 °F 97% 30.04 in 10.0 mi North - - N/A   Unknown
4:35 AM 36.3 °F 35.4 °F 97% 30.04 in 10.0 mi North - - N/A   Unknown
4:55 AM 36.1 °F 35.4 °F 97% 30.05 in 10.0 mi North - - N/A   Unknown
5:15 AM 35.8 °F 34.9 °F 97% 30.05 in 10.0 mi North - - N/A   Clear
5:35 AM 35.8 °F 34.9 °F 97% 30.05 in 10.0 mi North - - N/A   Clear
5:55 AM 35.6 °F 34.7 °F 97% 30.05 in 10.0 mi North - - N/A   Clear
6:15 AM 35.6 °F 34.7 °F 97% 30.06 in 10.0 mi North - - N/A   Clear
6:35 AM 35.6 °F 34.7 °F 97% 30.05 in 10.0 mi North - - N/A   Clear
6:55 AM 35.1 °F 34.2 °F 97% 30.06 in 10.0 mi North - - N/A   Unknown
7:15 AM 35.2 °F 34.5 °F 97% 30.05 in 10.0 mi North - - N/A   Unknown
7:35 AM 35.1 °F 34.3 °F 97% 30.06 in 10.0 mi North - - N/A   Unknown
7:55 AM 35.1 °F 34.3 °F 97% 30.06 in 10.0 mi North - - N/A   Unknown
8:15 AM 35.4 °F 34.9 °F 98% 30.06 in 10.0 mi North - - N/A   Unknown
8:35 AM 36.0 °F 35.4 °F 98% 30.06 in 10.0 mi North - - N/A   Unknown
8:55 AM 37.4 °F 36.7 °F 97% 30.06 in 10.0 mi North - - N/A   Unknown
9:15 AM 39.7 °F 39.2 °F 98% 30.07 in 10.0 mi North - - N/A   Unknown
9:35 AM 43.2 °F 41.7 °F 95% 30.08 in 10.0 mi North - - N/A   Unknown
9:55 AM 43.9 °F 41.0 °F 90% 30.08 in 10.0 mi North - - N/A   Unknown
10:15 AM 45.3 °F 42.8 °F 91% 30.08 in 10.0 mi North - - N/A   Unknown
10:35 AM 50.9 °F 45.5 °F 82% 30.08 in 10.0 mi North - - N/A   Unknown
10:55 AM 54.0 °F 46.2 °F 75% 30.08 in 10.0 mi North - - N/A   Unknown
11:15 AM 55.8 °F 44.4 °F 66% 30.08 in 10.0 mi North - - N/A   Clear
11:35 AM 58.1 °F 42.8 °F 57% 30.08 in 10.0 mi North - - N/A   Clear
11:55 AM 61.3 °F 42.3 °F 50% 30.08 in 10.0 mi North - - N/A   Clear
12:15 PM 61.0 °F 41.4 °F 48% 30.08 in 10.0 mi North - - N/A   Clear
12:35 PM 62.6 °F 41.5 °F 46% 30.07 in 10.0 mi North - - N/A   Clear
12:55 PM 62.8 °F 41.5 °F 46% 30.06 in 10.0 mi North - - N/A   Clear
1:15 PM 64.0 °F 41.9 °F 44% 30.05 in 10.0 mi North - - N/A   Clear
1:35 PM 64.4 °F 41.5 °F 43% 30.03 in 10.0 mi North - - N/A   Clear
1:55 PM 65.3 °F 42.3 °F 43% 30.03 in 10.0 mi North - - N/A   Clear
2:15 PM 66.0 °F 41.9 °F 41% 30.02 in 10.0 mi North - - N/A   Clear
2:35 PM 67.3 °F 41.9 °F 40% 30.01 in 10.0 mi North - - N/A   Clear
2:55 PM 67.1 °F 41.9 °F 40% 30.00 in 10.0 mi North - - N/A   Clear
3:15 PM 68.5 °F 40.1 °F 35% 29.99 in 10.0 mi North - - N/A   Clear
3:35 PM 70.0 °F 40.5 °F 34% 29.99 in 10.0 mi North - - N/A   Clear
3:55 PM 69.1 °F 39.2 °F 34% 29.98 in 10.0 mi North - - N/A   Clear
4:15 PM 69.1 °F 40.5 °F 35% 29.97 in 10.0 mi North - - N/A   Clear
4:35 PM 70.3 °F 39.7 °F 33% 29.97 in 10.0 mi North - - N/A   Clear
4:55 PM 69.1 °F 41.0 °F 36% 29.96 in 10.0 mi North - - N/A   Clear
5:15 PM 68.0 °F 41.0 °F 37% 29.97 in 10.0 mi North - - N/A   Clear
5:35 PM 66.7 °F 41.2 °F 39% 29.96 in 10.0 mi North - - N/A   Clear
5:55 PM 65.8 °F 41.7 °F 41% 29.96 in 10.0 mi North - - N/A   Scattered Clouds
6:15 PM 65.3 °F 42.1 °F 43% 29.95 in 10.0 mi North - - N/A   Overcast
6:35 PM 64.6 °F 41.9 °F 44% 29.95 in 10.0 mi North - - N/A   Overcast
6:55 PM 63.0 °F 45.3 °F 53% 29.96 in 10.0 mi North - - N/A   Overcast
7:15 PM 61.7 °F 43.2 °F 51% 29.96 in 10.0 mi North - - N/A   Overcast
7:55 PM 60.1 °F 44.4 °F 56% 29.97 in 10.0 mi North - - N/A   Mostly Cloudy
8:15 PM 61.0 °F 42.3 °F 50% 29.97 in 10.0 mi North - - N/A   Overcast
8:35 PM 60.4 °F 42.1 °F 51% 29.97 in 10.0 mi North - - N/A Rain Light Rain
8:55 PM 58.8 °F 45.0 °F 60% 29.98 in 10.0 mi North - - N/A Rain Light Rain
9:15 PM 55.2 °F 49.3 °F 80% 29.98 in 10.0 mi North - - N/A Rain Light Rain
9:35 PM 53.1 °F 49.6 °F 88% 29.98 in 7.0 mi North - - N/A Rain Rain
9:55 PM 52.7 °F 50.5 °F 92% 29.99 in 7.0 mi North - - N/A Rain Light Rain
10:15 PM 52.3 °F 50.4 °F 93% 30.00 in 10.0 mi North - - N/A Rain Light Rain
10:35 PM 52.5 °F 49.8 °F 91% 29.99 in 4.0 mi North - - N/A Rain Rain
10:55 PM 52.2 °F 50.0 °F 92% 29.99 in 3.0 mi North - - N/A Rain Rain
11:15 PM 52.2 °F 50.0 °F 92% 29.98 in 7.0 mi North - - N/A Rain Rain
11:35 PM 52.3 °F 50.2 °F 92% 29.97 in 7.0 mi North - - N/A Rain Light Rain
11:55 PM 52.3 °F 50.5 °F 94% 29.96 in 10.0 mi North - - N/A Rain Light Rain